This demonstration page uses our WeatherBlox Daily Observations layout. Learn more.

Left ArrowRight Arrow

41.86663, -103.66717

Hourly Observations for August 15, 2021

Temp ( °F °C ) Dew Point ( °F °C ) Humidity (%) Winds ( mph kmh ) Pressure ( in mb ) Visibility ( mi km ) Precip ( " mm )
12:53 am 00:53 Clear 69 20.6 56 13.3 63 63 ENE 7 11 29.93 1013 10 16 N/A
1:53 am 01:53 Clear 68 20 56 13.3 65 65 ESE 8 13 29.92 1013 10 16 N/A
2:53 am 02:53 Clear 66 18.9 55 12.8 68 68 N N/A 29.92 1013 10 16 N/A
3:53 am 03:53 Clear 66 18.9 54 12.2 65 65 N 6 9 29.91 1013 10 16 N/A
4:53 am 04:53 Clear 64 17.8 55 12.8 73 73 NE 5 7 29.90 1013 10 16 N/A
5:53 am 05:53 Clear 63 17.2 54 12.2 73 73 N N/A 29.92 1013 10 16 N/A
6:53 am 06:53 Sunny 66 18.9 55 12.8 68 68 N N/A 29.91 1013 10 16 N/A
7:53 am 07:53 Sunny 71 21.7 55 12.8 57 57 N N/A 29.93 1013 10 16 N/A
8:53 am 08:53 Sunny 73 22.8 59 15 62 62 E 5 7 29.94 1014 10 16 N/A
9:53 am 09:53 Sunny 75 23.9 59 15 58 58 SE 6 9 29.94 1014 10 16 N/A
10:53 am 10:53 Sunny 78 25.6 58 14.4 50 50 S 8 13 29.95 1014 10 16 N/A
11:53 am 11:53 Sunny 82 27.8 58 14.4 44 44 E 8 13 29.93 1014 10 16 N/A
12:53 pm 12:53 Sunny 84 28.9 59 15 43 43 ESE 8 13 29.91 1013 10 16 N/A
1:53 pm 13:53 Sunny 88 31.1 56 13.3 34 34 E 6 9 29.89 1012 10 16 N/A
2:53 pm 14:53 Sunny 89 31.7 54 12.2 30 30 E 8 13 29.87 1011 10 16 N/A
3:53 pm 15:53 Sunny 92 33.3 45 7.2 20 20 S 8 13 29.84 1011 10 16 N/A
4:53 pm 16:53 Sunny 93 33.9 48 8.9 21 21 SSE 6 9 29.83 1010 10 16 N/A
5:53 pm 17:53 Sunny 90 32.2 48 8.9 24 24 S 5 7 29.84 1010 10 16 N/A
6:53 pm 18:53 Sunny 87 30.6 52 11.1 30 30 SSE 3 6 29.84 1010 9 14 N/A
7:53 pm 19:53 Sunny 77 25 61 16.1 58 58 E 3 6 29.85 1011 8 13 N/A
8:53 pm 20:53 Clear 75 23.9 56 13.3 52 52 N N/A 29.88 1012 9 14 N/A
9:53 pm 21:53 Clear 77 25 47 8.3 35 35 W 8 13 29.88 1012 10 16 N/A
10:53 pm 22:53 Clear 69 20.6 48 8.9 47 47 N 7 11 29.88 1012 10 16 N/A
11:53 pm 23:53 Clear 66 18.9 52 11.1 61 61 ESE 3 6 29.88 1012 10 16 N/A

Powered by AerisWeather